Location: Grandview
(34.8900°N, 117.1058°W)
Time: 15:36:08
(UTC-07:00)

Envisat - Pass Details

Date: 11 October 2017
Orbit: 764 x 766 km, 98.2° (Epoch: 23 October)

Event Time Altitude Azimuth Distance (km) Brightness Sun altitude
Exits shadow 20:51:09 30° 342° (NNW) 1,338 4.4 -32.0°
Drops below altitude 10° 20:53:42 10° 345° (NNW) 2,305 5.8 -32.5°
Sets 20:56:01 0° 347° (NNW) 3,235 6.6 -32.9°
